TimePST,TemperatureF,Dew PointF,Humidity,Sea Level PressureIn,VisibilityMPH,Wind Direction,Wind SpeedMPH,Gust SpeedMPH,PrecipitationIn,Events,Conditions,WindDirDegrees,DateUTC
12:15 AM,44.6,42.8,93,30.39,7.0,South,8.1,-,N/A,Rain,Light Rain,190,2013-01-30 08:15:00
12:35 AM,44.6,42.8,93,30.39,4.0,South,6.9,-,N/A,Rain,Light Rain,170,2013-01-30 08:35:00
12:55 AM,44.6,42.8,93,30.38,5.0,SSE,8.1,-,N/A,Rain,Light Rain,160,2013-01-30 08:55:00
1:15 AM,44.6,44.6,100,30.39,9.0,South,6.9,-,0.01,,Overcast,170,2013-01-30 09:15:00
1:35 AM,44.6,44.6,100,30.39,9.0,South,6.9,-,0.02,,Overcast,170,2013-01-30 09:35:00
1:55 AM,44.6,44.6,100,30.39,8.0,SSE,8.1,-,0.02,,Overcast,160,2013-01-30 09:55:00
2:15 AM,44.6,44.6,100,30.40,6.0,South,4.6,-,N/A,,Overcast,190,2013-01-30 10:15:00
2:35 AM,44.6,44.6,100,30.40,5.0,SSE,8.1,-,N/A,,Overcast,160,2013-01-30 10:35:00
2:55 AM,44.6,44.6,100,30.40,9.0,SSE,9.2,-,N/A,,Overcast,150,2013-01-30 10:55:00
3:15 AM,44.6,44.6,100,30.40,10.0,SSW,5.8,-,N/A,,Overcast,200,2013-01-30 11:15:00
3:35 AM,46.4,44.6,93,30.40,7.0,South,8.1,-,N/A,,Overcast,180,2013-01-30 11:35:00
3:55 AM,46.4,44.6,93,30.39,6.0,South,6.9,-,N/A,,Overcast,170,2013-01-30 11:55:00
4:15 AM,46.4,44.6,93,30.40,5.0,SSW,5.8,-,N/A,,Overcast,200,2013-01-30 12:15:00
4:35 AM,46.4,44.6,93,30.40,6.0,South,6.9,-,N/A,,Overcast,180,2013-01-30 12:35:00
4:55 AM,46.4,44.6,93,30.40,5.0,South,6.9,-,N/A,,Overcast,190,2013-01-30 12:55:00
5:15 AM,46.4,44.6,93,30.39,4.0,SSW,6.9,-,N/A,,Overcast,200,2013-01-30 13:15:00
5:35 AM,44.6,44.6,100,30.39,2.5,South,6.9,-,N/A,,Overcast,190,2013-01-30 13:35:00
5:55 AM,44.6,44.6,100,30.39,3.0,SSW,5.8,-,N/A,Rain,Light Rain,200,2013-01-30 13:55:00
6:15 AM,44.6,44.6,100,30.39,3.0,SSW,6.9,-,0.01,Rain,Light Rain,200,2013-01-30 14:15:00
6:35 AM,44.6,44.6,100,30.40,3.0,South,5.8,-,0.02,Rain,Light Rain,190,2013-01-30 14:35:00
6:55 AM,44.6,44.6,100,30.40,4.0,SSW,4.6,-,0.02,Rain,Light Rain,200,2013-01-30 14:55:00
7:15 AM,44.6,44.6,100,30.40,4.0,South,4.6,-,0.01,Rain,Light Rain,190,2013-01-30 15:15:00
7:35 AM,44.6,44.6,100,30.40,4.0,South,6.9,-,0.02,Rain,Light Rain,190,2013-01-30 15:35:00
7:55 AM,44.6,44.6,100,30.41,4.0,South,5.8,-,0.03,Rain,Light Rain,170,2013-01-30 15:55:00
8:15 AM,44.6,44.6,100,30.41,4.0,South,8.1,-,0.01,Rain,Light Rain,180,2013-01-30 16:15:00
8:35 AM,44.6,44.6,100,30.42,4.0,South,5.8,-,0.01,Rain,Light Rain,170,2013-01-30 16:35:00
8:55 AM,44.6,44.6,100,30.42,3.0,South,5.8,-,0.03,Rain,Light Rain,190,2013-01-30 16:55:00
9:15 AM,44.6,44.6,100,30.42,3.0,South,6.9,-,0.02,Rain,Light Rain,180,2013-01-30 17:15:00
9:35 AM,46.4,44.6,93,30.42,4.0,South,6.9,-,0.04,Rain,Light Rain,180,2013-01-30 17:35:00
9:55 AM,46.4,44.6,93,30.42,4.0,South,6.9,-,0.05,Rain,Light Rain,180,2013-01-30 17:55:00
10:15 AM,46.4,44.6,93,30.43,3.0,South,5.8,-,0.02,Rain,Light Rain,180,2013-01-30 18:15:00
10:35 AM,46.4,44.6,93,30.43,3.0,SSE,8.1,-,0.04,Rain,Light Rain,160,2013-01-30 18:35:00
10:55 AM,46.4,44.6,93,30.43,4.0,SSE,9.2,-,0.05,Rain,Light Rain,150,2013-01-30 18:55:00
11:15 AM,46.4,44.6,93,30.43,3.0,SSE,10.4,-,0.02,Rain,Light Rain,160,2013-01-30 19:15:00
11:35 AM,46.4,44.6,93,30.43,4.0,South,6.9,-,0.03,Rain,Light Rain,170,2013-01-30 19:35:00
11:55 AM,46.4,46.4,100,30.43,5.0,SW,4.6,-,0.04,Rain,Light Rain,230,2013-01-30 19:55:00
12:15 PM,46.4,46.4,100,30.43,3.0,South,6.9,-,0.01,Rain,Light Rain,170,2013-01-30 20:15:00
12:35 PM,46.4,46.4,100,30.42,4.0,SSE,9.2,-,0.02,Rain,Light Rain,150,2013-01-30 20:35:00
12:55 PM,46.4,46.4,100,30.42,3.0,South,5.8,-,0.02,Rain,Light Rain,170,2013-01-30 20:55:00
1:15 PM,48.2,46.4,93,30.41,4.0,SSE,9.2,-,0.01,Rain,Light Rain,150,2013-01-30 21:15:00
1:35 PM,48.2,46.4,93,30.41,6.0,SSE,8.1,-,0.01,,Scattered Clouds,160,2013-01-30 21:35:00
1:55 PM,48.2,46.4,93,30.41,4.0,South,5.8,-,0.01,,Mostly Cloudy,180,2013-01-30 21:55:00
2:15 PM,48.2,46.4,93,30.41,4.0,SSW,3.5,-,N/A,,Overcast,210,2013-01-30 22:15:00
2:35 PM,48.2,48.2,100,30.41,4.0,SSW,4.6,-,0.01,,Overcast,200,2013-01-30 22:35:00
2:55 PM,48.2,48.2,100,30.41,5.0,SSW,6.9,-,0.01,,Overcast,210,2013-01-30 22:55:00
3:15 PM,48.2,46.4,93,30.41,5.0,SW,5.8,-,N/A,,Overcast,230,2013-01-30 23:15:00
3:35 PM,48.2,46.4,93,30.40,5.0,SW,5.8,-,N/A,,Overcast,230,2013-01-30 23:35:00
3:55 PM,48.2,46.4,93,30.40,5.0,SW,3.5,-,N/A,,Overcast,230,2013-01-30 23:55:00
4:15 PM,48.2,46.4,93,30.40,5.0,SW,4.6,-,N/A,,Overcast,220,2013-01-31 00:15:00
4:35 PM,48.2,46.4,93,30.40,5.0,SW,5.8,-,N/A,,Overcast,220,2013-01-31 00:35:00
4:55 PM,48.2,46.4,93,30.40,5.0,SW,3.5,-,N/A,,Overcast,220,2013-01-31 00:55:00
5:15 PM,48.2,46.4,93,30.40,5.0,SW,4.6,-,N/A,,Overcast,220,2013-01-31 01:15:00
5:35 PM,48.2,46.4,93,30.41,9.0,SW,4.6,-,N/A,,Overcast,220,2013-01-31 01:35:00
5:55 PM,48.2,46.4,93,30.41,7.0,SW,3.5,-,N/A,,Overcast,230,2013-01-31 01:55:00
6:15 PM,48.2,46.4,93,30.40,10.0,SW,5.8,-,N/A,,Overcast,220,2013-01-31 02:15:00
6:35 PM,48.2,46.4,93,30.40,10.0,SW,5.8,-,N/A,,Overcast,220,2013-01-31 02:35:00
6:55 PM,48.2,46.4,93,30.40,10.0,SW,5.8,-,N/A,,Overcast,230,2013-01-31 02:55:00
7:15 PM,48.2,46.4,93,30.40,10.0,SSW,4.6,-,N/A,,Overcast,210,2013-01-31 03:15:00
7:35 PM,48.2,46.4,93,30.41,10.0,South,4.6,-,N/A,,Overcast,190,2013-01-31 03:35:00
7:55 PM,48.2,46.4,93,30.40,10.0,South,5.8,-,N/A,,Overcast,170,2013-01-31 03:55:00
8:15 PM,48.2,46.4,93,30.41,10.0,SW,4.6,-,N/A,,Overcast,230,2013-01-31 04:15:00
8:35 PM,48.2,46.4,93,30.41,10.0,SW,5.8,-,N/A,,Overcast,230,2013-01-31 04:35:00
8:55 PM,48.2,46.4,93,30.41,10.0,SSW,4.6,-,N/A,,Overcast,210,2013-01-31 04:55:00
9:15 PM,48.2,46.4,93,30.41,10.0,SW,4.6,-,N/A,,Overcast,220,2013-01-31 05:15:00
9:35 PM,48.2,46.4,93,30.41,7.0,SW,4.6,-,N/A,,Overcast,220,2013-01-31 05:35:00
9:55 PM,48.2,46.4,93,30.41,9.0,SW,6.9,-,N/A,,Overcast,230,2013-01-31 05:55:00
10:15 PM,48.2,46.4,93,30.41,7.0,SW,5.8,-,N/A,,Overcast,220,2013-01-31 06:15:00
10:35 PM,48.2,46.4,93,30.41,10.0,SSW,9.2,-,N/A,,Overcast,210,2013-01-31 06:35:00
10:55 PM,48.2,46.4,93,30.41,10.0,SW,8.1,-,N/A,,Overcast,220,2013-01-31 06:55:00
11:15 PM,48.2,46.4,93,30.42,10.0,SW,9.2,-,N/A,,Overcast,230,2013-01-31 07:15:00
11:35 PM,48.2,46.4,93,30.42,10.0,SSW,8.1,-,N/A,,Overcast,200,2013-01-31 07:35:00
11:55 PM,48.2,46.4,93,30.42,10.0,SW,5.8,-,N/A,,Overcast,220,2013-01-31 07:55:00